Lid_Strength_Index
3 3 3 3 3 3 3 2 2 2 2 2 2 3 4 4 4 5 7 3 1 -0 -0 1 2 3 3 5 4 5 11 12 11 10 9 6 8 5 4 6 5 4 5 3 2
3 3 3 3 3 3 3 3 3 2 2 2 2 2 3 4 5 7 1 -1 -1 -1 2 3 5 4 6 6 6 8 12 10 7 7 8 7 7 6 6 6 6 5 3 2 2
3 3 3 3 3 3 3 3 3 3 3 2 2 2 1 4 8 8 -1 -1 -1 -0 1 2 3 4 7 6 6 7 10 7 7 6 5 6 6 5 7 8 6 7 5 4 3
3 3 3 3 3 3 3 3 3 3 3 2 2 1 1 3 13 4 -1 -0 -1 -0 1 3 4 7 8 8 6 10 7 7 6 6 6 7 5 6 6 6 4 4 4 4 4
3 4 4 4 4 3 3 3 3 3 3 3 2 1 4 8 6 1 -1 -1 0 1 3 4 5 6 8 6 6 8 7 6 6 6 6 5 6 6 6 4 4 4 4 4 4
4 4 4 4 4 4 3 3 3 3 3 2 2 1 4 9 4 0 0 1 1 2 3 3 5 4 6 7 8 6 7 7 6 6 6 7 6 6 6 4 5 5 5 4 4
4 4 4 4 4 4 3 3 3 3 3 2 1 1 5 8 2 0 0 1 1 2 4 3 3 6 5 8 5 6 8 7 7 7 7 6 8 8 5 5 5 5 5 4 4
3 3 4 4 4 4 3 3 3 3 2 2 0 3 8 4 4 3 1 2 2 2 3 2 3 5 6 5 7 8 9 12 8 7 6 7 12 8 6 5 6 5 5 4 4
3 3 3 3 3 3 4 3 3 2 1 1 5 6 9 2 6 4 5 4 6 7 6 2 5 6 7 9 11 10 13 12 10 7 7 8 11 8 5 6 6 6 5 5 4
4 4 4 3 3 4 4 4 3 2 1 1 2 8 7 7 6 5 6 6 7 7 8 9 10 10 10 10 15 13 13 11 10 8 8 9 10 8 6 6 6 6 5 5 5
4 4 4 3 4 4 6 6 7 7 6 8 9 6 6 6 5 5 5 6 7 8 11 10 11 12 10 9 8 10 10 11 9 7 8 9 9 9 7 6 6 6 6 5 5
3 4 4 4 4 4 7 6 6 6 8 5 4 5 4 6 7 6 6 8 9 10 10 10 13 10 9 7 9 10 10 11 9 7 8 9 9 8 7 7 6 6 6 5 5
4 4 4 4 5 7 6 5 3 5 9 7 5 5 5 6 7 7 7 8 9 11 11 11 10 8 10 10 10 11 11 10 10 8 7 9 12 10 8 6 6 5 5 5 5
4 4 5 5 6 6 5 3 4 6 11 9 8 6 6 6 8 5 6 7 9 10 10 11 9 9 11 12 9 13 8 8 9 10 14 9 17 12 10 9 7 6 6 5 5
4 4 5 6 8 7 4 5 6 7 15 7 9 5 8 8 9 7 6 8 9 9 10 11 10 11 12 11 8 9 7 8 9 11 13 12 15 13 10 11 9 7 6 5 4
4 5 6 6 7 5 5 6 7 12 13 10 7 9 10 10 8 7 8 7 7 9 10 10 8 9 10 10 10 9 11 11 12 14 16 13 13 13 13 10 9 7 6 5 5
5 6 7 4 6 5 6 7 12 14 8 9 10 10 10 11 10 9 10 11 11 12 14 10 10 9 9 11 11 11 15 17 17 17 16 14 14 12 9 8 7 7 6 5 5
7 7 7 4 6 5 7 9 14 9 11 9 9 10 10 10 10 10 11 12 11 12 14 15 13 10 8 11 11 12 14 16 18 18 16 15 15 12 7 7 6 6 6 5 6
7 7 6 4 5 5 8 12 12 12 9 9 9 10 11 10 10 10 12 11 9 9 12 13 12 8 7 9 10 13 14 13 15 16 16 16 13 9 8 8 7 7 6 6 5
8 7 6 3 4 7 9 11 10 9 8 8 12 10 12 10 10 11 11 9 9 9 10 11 13 10 8 8 8 11 11 14 16 17 18 16 16 14 10 9 8 7 6 6 5
7 6 4 4 5 8 11 10 8 8 7 9 11 12 11 11 11 11 11 9 8 8 8 11 12 11 10 11 12 11 11 14 15 16 17 18 16 13 9 8 8 7 6 6 5
8 8 4 5 9 9 10 8 8 8 7 8 8 9 10 10 11 10 9 9 7 8 10 10 13 14 12 10 9 11 12 15 15 15 17 17 15 9 9 7 7 7 6 5 4
9 8 4 6 11 11 10 8 8 8 9 8 8 9 9 10 11 9 9 7 6 8 10 8 13 15 14 13 10 11 11 12 13 15 16 16 14 8 9 7 7 7 6 6 5
8 10 9 9 10 10 12 11 9 6 8 7 8 8 9 10 11 11 10 7 7 7 5 7 13 14 15 13 13 12 11 12 13 15 15 14 13 9 8 9 7 7 6 6 6
8 10 9 11 10 10 12 10 10 9 8 8 9 8 10 12 12 12 11 11 9 5 10 10 13 11 12 11 11 12 11 11 13 13 14 12 13 11 10 9 8 7 6 7 8
10 10 9 10 10 10 11 12 10 9 9 11 10 9 9 13 13 13 13 14 13 11 13 13 15 14 14 11 11 12 10 10 11 11 11 12 11 9 8 7 8 9 9 9 8
7 7 8 9 10 10 11 10 9 9 9 8 9 10 11 10 10 11 11 11 10 12 12 13 14 15 16 12 11 13 11 11 10 10 11 12 11 9 9 8 9 9 9 8 8